AFR57AU LFPG-LFRS

Flight info

Callsign AFR57AU
Flight time N/A
Altitude 27000
Route LGL UT176 ROLEN UZ15 ARDOD A5 VALAX
Aircraft A320/M-SDE2E3FGIJ1RWY/HB1

Departure

Time 2026-05-04 09:51
Airport Charles de Gaulle International Airport (LFPG)

Arrival

Time N/A
Airport Nantes Atlantique Airport (LFRS)
Time Latitude Longitude Altitude Speed Heading
2026-05-04 09:29 49.00662 2.57575 362 ft 0 kts 249°
2026-05-04 09:40 49.00664 2.57582 361 ft 3 kts 249°
2026-05-04 09:41 49.00672 2.57620 359 ft 4 kts 261°
2026-05-04 09:42 49.00662 2.57671 361 ft 0 kts 356°
2026-05-04 09:43 49.00671 2.57670 357 ft 2 kts 356°
2026-05-04 09:43 49.00706 2.57666 357 ft 9 kts 355°
2026-05-04 09:44 49.00773 2.57628 359 ft 12 kts 317°
2026-05-04 09:44 49.00786 2.57503 354 ft 13 kts 264°
2026-05-04 09:44 49.00777 2.57354 358 ft 15 kts 264°
2026-05-04 09:46 49.00613 2.56196 354 ft 16 kts 265°
2026-05-04 09:46 49.00595 2.56039 354 ft 15 kts 249°
2026-05-04 09:46 49.00571 2.55897 354 ft 13 kts 265°
2026-05-04 09:47 49.00564 2.55766 355 ft 12 kts 265°
2026-05-04 09:47 49.00557 2.55647 354 ft 11 kts 265°
2026-05-04 09:49 49.00106 2.55478 358 ft 15 kts 164°
2026-05-04 09:49 48.99972 2.55535 358 ft 23 kts 164°
2026-05-04 09:49 48.99848 2.55673 361 ft 23 kts 118°
2026-05-04 09:51 48.99611 2.56045 354 ft 47 kts 85°
2026-05-04 09:51 48.99659 2.56919 361 ft 116 kts 85°
2026-05-04 09:51 48.99740 2.58427 424 ft 161 kts 85°
2026-05-04 09:51 48.99823 2.60092 1171 ft 156 kts 87°
2026-05-04 09:52 48.99912 2.61731 1887 ft 156 kts 86°
2026-05-04 09:52 48.99999 2.63384 2539 ft 157 kts 87°
2026-05-04 09:52 49.00083 2.65038 3169 ft 157 kts 86°
2026-05-04 09:52 49.00172 2.66714 3703 ft 164 kts 86°
2026-05-04 09:53 49.00221 2.68565 4014 ft 186 kts 99°
2026-05-04 09:53 48.99847 2.70566 4323 ft 208 kts 112°
2026-05-04 09:53 48.99295 2.72742 4639 ft 233 kts 112°
2026-05-04 09:53 48.98674 2.75163 5062 ft 258 kts 112°
2026-05-04 09:54 48.98016 2.77725 5789 ft 267 kts 112°
2026-05-04 09:54 48.97332 2.80386 6685 ft 272 kts 112°
2026-05-04 09:54 48.96636 2.83081 7582 ft 275 kts 112°
2026-05-04 09:54 48.95925 2.85809 8601 ft 279 kts 113°
2026-05-04 09:55 48.94937 2.88367 9559 ft 284 kts 134°
2026-05-04 09:55 48.93336 2.90127 10407 ft 289 kts 158°
2026-05-04 09:55 48.91348 2.90731 11044 ft 302 kts 182°
2026-05-04 09:55 48.89264 2.89859 11394 ft 324 kts 211°
2026-05-04 09:56 48.87625 2.87466 12056 ft 335 kts 237°
2026-05-04 09:56 48.86813 2.84144 12798 ft 341 kts 257°
2026-05-04 09:56 48.86291 2.80609 13588 ft 345 kts 257°
2026-05-04 09:56 48.85767 2.77035 14311 ft 349 kts 257°
2026-05-04 09:57 48.85235 2.73423 15058 ft 353 kts 256°
2026-05-04 09:57 48.84692 2.69774 15804 ft 356 kts 256°
2026-05-04 09:57 48.84142 2.66091 16540 ft 359 kts 256°
2026-05-04 09:57 48.83585 2.62379 17233 ft 362 kts 256°
2026-05-04 09:58 48.83015 2.58620 17832 ft 369 kts 256°
2026-05-04 09:58 48.82435 2.54804 18418 ft 374 kts 256°
2026-05-04 09:58 48.81847 2.50938 19039 ft 377 kts 255°
2026-05-04 10:00 48.80138 2.23014 23772 ft 387 kts 266°
2026-05-04 10:00 48.80143 2.18918 24287 ft 390 kts 266°
2026-05-04 10:02 48.80116 1.89419 26988 ft 404 kts 265°
2026-05-04 10:04 48.80034 1.61129 26993 ft 380 kts 265°
2026-05-04 10:04 48.80017 1.57178 26988 ft 380 kts 265°
2026-05-04 10:04 48.80001 1.53175 26991 ft 380 kts 265°
2026-05-04 10:04 48.79982 1.49174 26986 ft 379 kts 265°
2026-05-04 10:05 48.79960 1.45173 26997 ft 379 kts 265°
2026-05-04 10:05 48.79934 1.41172 26997 ft 379 kts 265°
2026-05-04 10:05 48.79907 1.37173 26999 ft 379 kts 265°
2026-05-04 10:05 48.79879 1.33172 26997 ft 379 kts 265°
2026-05-04 10:06 48.79850 1.29170 27023 ft 380 kts 265°
2026-05-04 10:06 48.79819 1.25167 27015 ft 380 kts 265°
2026-05-04 10:06 48.79789 1.21160 27009 ft 380 kts 265°
2026-05-04 10:08 48.79582 0.97094 26993 ft 381 kts 264°
2026-05-04 10:08 48.79541 0.93072 26987 ft 381 kts 264°
2026-05-04 10:08 48.79500 0.89058 26983 ft 381 kts 264°
2026-05-04 10:08 48.79458 0.85045 27013 ft 381 kts 264°
2026-05-04 10:09 48.79416 0.81029 27010 ft 381 kts 264°
2026-05-04 10:09 48.79372 0.77018 27007 ft 380 kts 264°
2026-05-04 10:09 48.79324 0.73012 27005 ft 380 kts 264°
2026-05-04 10:09 48.79272 0.69004 26997 ft 380 kts 264°
2026-05-04 10:10 48.79220 0.64998 26995 ft 380 kts 264°
2026-05-04 10:10 48.79169 0.61045 26993 ft 380 kts 264°
2026-05-04 10:10 48.78942 0.57083 26992 ft 375 kts 255°
2026-05-04 10:10 48.78238 0.53318 26990 ft 369 kts 244°
2026-05-04 10:11 48.77097 0.49860 26990 ft 364 kts 234°
2026-05-04 10:11 48.75582 0.46811 26988 ft 361 kts 226°
2026-05-04 10:11 48.73949 0.43915 26985 ft 361 kts 226°
2026-05-04 10:11 48.72319 0.41018 27000 ft 361 kts 227°
2026-05-04 10:12 48.70690 0.38124 26999 ft 361 kts 226°
2026-05-04 10:12 48.69061 0.35237 26998 ft 360 kts 226°
2026-05-04 10:12 48.67433 0.32355 26994 ft 360 kts 226°
2026-05-04 10:12 48.65806 0.29475 26995 ft 360 kts 226°
2026-05-04 10:13 48.64182 0.26594 26983 ft 360 kts 226°
2026-05-04 10:13 48.62557 0.23714 26978 ft 360 kts 226°
2026-05-04 10:13 48.60931 0.20836 26975 ft 360 kts 226°
2026-05-04 10:13 48.59303 0.17960 26973 ft 360 kts 226°
2026-05-04 10:14 48.57609 0.15185 26968 ft 358 kts 219°
2026-05-04 10:14 48.55718 0.12746 26966 ft 357 kts 218°
2026-05-04 10:16 48.42455 -0.04163 26988 ft 357 kts 218°
2026-05-04 10:16 48.40557 -0.06572 26991 ft 357 kts 218°
2026-05-04 10:16 48.38659 -0.08979 26985 ft 357 kts 218°
2026-05-04 10:16 48.36761 -0.11378 26983 ft 356 kts 218°
2026-05-04 10:17 48.34863 -0.13772 26981 ft 356 kts 218°
2026-05-04 10:17 48.32966 -0.16166 26978 ft 356 kts 218°
2026-05-04 10:19 48.19703 -0.32892 26970 ft 356 kts 217°
2026-05-04 10:19 48.17804 -0.35268 26972 ft 356 kts 217°
2026-05-04 10:19 48.15906 -0.37641 26968 ft 356 kts 217°
2026-05-04 10:19 48.14007 -0.40013 26963 ft 356 kts 217°
2026-05-04 10:20 48.12107 -0.42381 26964 ft 355 kts 217°
2026-05-04 10:20 48.10214 -0.44743 26803 ft 352 kts 217°
2026-05-04 10:20 48.08351 -0.47069 26545 ft 347 kts 217°
2026-05-04 10:20 48.06503 -0.49374 26288 ft 345 kts 217°
2026-05-04 10:21 48.04663 -0.51669 26032 ft 344 kts 217°
2026-05-04 10:21 48.02827 -0.53954 25783 ft 343 kts 217°
2026-05-04 10:21 48.01017 -0.56196 25534 ft 342 kts 217°
2026-05-04 10:21 47.99187 -0.58458 25287 ft 341 kts 217°
2026-05-04 10:22 47.95601 -0.62913 24571 ft 331 kts 217°
2026-05-04 10:22 47.93839 -0.65104 24156 ft 328 kts 217°
2026-05-04 10:22 47.92089 -0.67271 23740 ft 326 kts 217°
2026-05-04 10:23 47.90347 -0.69420 23275 ft 324 kts 217°
2026-05-04 10:23 47.88617 -0.71550 22833 ft 321 kts 217°
2026-05-04 10:25 47.76917 -0.85943 20052 ft 305 kts 217°
2026-05-04 10:25 47.75282 -0.87944 19642 ft 304 kts 217°
2026-05-04 10:25 47.73648 -0.89946 19231 ft 304 kts 217°
2026-05-04 10:25 47.72014 -0.91946 18819 ft 304 kts 217°
2026-05-04 10:26 47.70929 -0.93269 18547 ft 304 kts 217°
2026-05-04 10:26 47.69291 -0.95261 18123 ft 305 kts 217°
2026-05-04 10:26 47.67651 -0.97254 17696 ft 304 kts 217°
2026-05-04 10:26 47.66017 -0.99241 17296 ft 303 kts 217°
2026-05-04 10:27 47.64384 -1.01222 16906 ft 303 kts 217°
2026-05-04 10:27 47.62757 -1.03198 16515 ft 302 kts 217°
2026-05-04 10:27 47.61136 -1.05167 16113 ft 301 kts 217°
2026-05-04 10:27 47.59518 -1.07128 15737 ft 300 kts 217°
2026-05-04 10:28 47.57902 -1.09083 15361 ft 300 kts 218°
2026-05-04 10:28 47.56289 -1.11033 14984 ft 299 kts 218°
2026-05-04 10:28 47.54687 -1.13010 14595 ft 301 kts 219°
2026-05-04 10:28 47.53097 -1.15018 14204 ft 300 kts 219°
2026-05-04 10:29 47.51514 -1.17034 13830 ft 300 kts 219°
2026-05-04 10:29 47.49934 -1.19047 13404 ft 299 kts 219°
2026-05-04 10:29 47.48355 -1.21048 13014 ft 297 kts 219°
2026-05-04 10:29 47.46788 -1.23026 12633 ft 296 kts 219°
2026-05-04 10:30 47.45248 -1.24965 12270 ft 294 kts 219°
2026-05-04 10:30 47.43696 -1.26919 11876 ft 292 kts 219°
2026-05-04 10:30 47.42152 -1.28857 11693 ft 291 kts 219°
2026-05-04 10:30 47.40609 -1.30790 11478 ft 291 kts 219°
2026-05-04 10:31 47.39068 -1.32717 11259 ft 290 kts 219°
2026-05-04 10:31 47.37531 -1.34637 11041 ft 289 kts 219°
2026-05-04 10:32 47.28415 -1.46011 9727 ft 279 kts 219°
2026-05-04 10:33 47.26932 -1.47853 9513 ft 278 kts 219°
2026-05-04 10:33 47.25449 -1.49695 9291 ft 280 kts 219°
2026-05-04 10:33 47.23955 -1.51550 9084 ft 283 kts 219°
2026-05-04 10:33 47.22445 -1.53418 8913 ft 282 kts 219°
2026-05-04 10:34 47.20950 -1.55267 8654 ft 279 kts 219°
2026-05-04 10:34 47.19477 -1.57089 8434 ft 276 kts 219°
2026-05-04 10:34 47.18014 -1.58899 8224 ft 275 kts 219°
2026-05-04 10:34 47.16554 -1.60710 8022 ft 274 kts 219°
2026-05-04 10:35 47.15162 -1.62613 7809 ft 273 kts 228°
2026-05-04 10:35 47.13988 -1.64809 7606 ft 273 kts 231°
2026-05-04 10:35 47.12829 -1.67010 7395 ft 272 kts 231°
2026-05-04 10:35 47.11670 -1.69202 7190 ft 271 kts 231°
2026-05-04 10:36 47.10511 -1.71385 6975 ft 271 kts 231°
2026-05-04 10:36 47.09325 -1.73572 6401 ft 275 kts 230°
2026-05-04 10:36 47.08134 -1.75718 5719 ft 270 kts 229°
2026-05-04 10:36 47.06946 -1.77836 4985 ft 268 kts 230°
2026-05-04 10:37 47.05797 -1.79882 4762 ft 247 kts 230°
2026-05-04 10:37 47.04761 -1.81732 4704 ft 224 kts 231°
2026-05-04 10:37 47.03787 -1.83479 4650 ft 220 kts 231°
2026-05-04 10:37 47.02822 -1.85211 4558 ft 219 kts 231°
2026-05-04 10:39 46.96379 -1.83822 3206 ft 191 kts 126°
2026-05-04 10:39 46.95610 -1.82278 3109 ft 186 kts 123°
2026-05-04 10:39 46.95034 -1.80628 3008 ft 181 kts 104°
2026-05-04 10:40 46.94936 -1.78829 2997 ft 177 kts 81°
2026-05-04 10:40 46.95307 -1.77137 2997 ft 174 kts 57°
2026-05-04 10:40 46.96066 -1.75788 2998 ft 171 kts 38°
2026-05-04 10:40 46.97088 -1.74892 2993 ft 172 kts 26°
2026-05-04 10:41 46.98155 -1.74088 3000 ft 173 kts 26°
2026-05-04 10:41 46.99221 -1.73284 3006 ft 173 kts 25°
2026-05-04 10:41 47.00260 -1.72498 2994 ft 165 kts 26°
2026-05-04 10:41 47.01262 -1.71740 2894 ft 163 kts 26°
2026-05-04 10:42 47.02267 -1.70980 2719 ft 162 kts 26°
2026-05-04 10:42 47.03261 -1.70228 2516 ft 160 kts 25°
2026-05-04 10:42 47.04247 -1.69481 2300 ft 159 kts 26°
2026-05-04 10:42 47.05229 -1.68729 2072 ft 159 kts 26°
2026-05-04 10:43 47.06208 -1.67983 1856 ft 158 kts 26°
2026-05-04 10:44 47.12186 -1.63441 556 ft 132 kts 26°
2026-05-04 10:45 47.13007 -1.62830 396 ft 133 kts 24°
2026-05-04 10:45 47.13834 -1.62201 209 ft 134 kts 25°
2026-05-04 10:45 47.14642 -1.61584 104 ft 120 kts 24°
2026-05-04 10:45 47.15386 -1.61018 316 ft 133 kts 25°
2026-05-04 10:46 47.16269 -1.60336 979 ft 151 kts 26°
2026-05-04 10:46 47.17223 -1.59630 1839 ft 153 kts 24°
2026-05-04 10:46 47.18200 -1.59173 2542 ft 145 kts 350°
2026-05-04 10:46 47.18921 -1.60081 3079 ft 144 kts 296°